Location: Balagbag Mahabang Kahoy
(14.1562°N, 120.9200°E)
Time: 04:48:51
(UTC+00:00)

Cosmos 1656 Rocket - Pass Details

Date: 16 January 2026
Orbit: 794 x 844 km, 71.1° (Epoch: 14 February)

Event Time Altitude Azimuth Distance (km) Brightness Sun altitude
Rises 21:43:15 0° 202° (SSW) 3,374 6.8 -10.2°
Reaches altitude 10° 21:45:42 10° 204° (SSW) 2,446 6.1 -9.7°
Maximum altitude 21:51:16 67° 286° (WNW) 907 3.7 -8.4°
Drops below altitude 10° 21:56:53 10° 9° (N) 2,456 6.0 -7.1°
Sets 21:59:21 0° 12° (NNE) 3,389 6.8 -6.6°
